QPF
0.01 0.01 0.01 0.00 0.00 0.00 0.00 0.00 0.00 0.01 0.02 0.02 0.02 0.01 0.00 0.00 0.00 0.01 0.01 0.01 0.01 0.00 0.00 0.00 0.00 0.00 0.00 0.01 0.01 0.01 0.02 0.03 0.02 0.01 0.01 0.00 0.01 0.01 0.01 0.01 0.01 0.01 0.01 0.01
0.01 0.01 0.01 0.00 0.00 0.00 0.00 0.01 0.01 0.01 0.01 0.02 0.02 0.02 0.01 0.01 0.01 0.01 0.01 0.01 0.01 0.00 0.00 0.00 0.01 0.01 0.01 0.01 0.01 0.01 0.01 0.02 0.02 0.01 0.01 0.00 0.01 0.01 0.01 0.01 0.01 0.01 0.01 0.01
0.00 0.00 0.00 0.00 0.00 0.01 0.00 0.00 0.01 0.01 0.01 0.01 0.01 0.02 0.02 0.02 0.02 0.01 0.01 0.01 0.00 0.00 0.00 0.00 0.01 0.01 0.00 0.01 0.01 0.01 0.01 0.01 0.01 0.01 0.01 0.01 0.01 0.01 0.01 0.01 0.01 0.01 0.01 0.01
0.00 0.00 0.00 0.00 0.00 0.00 0.01 0.00 0.01 0.02 0.02 0.01 0.00 0.01 0.01 0.01 0.02 0.01 0.01 0.00 0.00 0.00 0.00 0.01 0.01 0.00 0.00 0.00 0.01 0.01 0.01 0.01 0.01 0.01 0.01 0.01 0.01 0.01 0.01 0.01 0.01 0.01 0.01 0.01
0.01 0.00 0.00 0.00 0.00 0.00 0.01 0.01 0.02 0.02 0.02 0.01 0.00 0.00 0.00 0.01 0.01 0.01 0.00 0.00 0.00 0.00 0.01 0.01 0.01 0.01 0.00 0.00 0.01 0.01 0.00 0.00 0.00 0.01 0.01 0.01 0.01 0.01 0.01 0.01 0.01 0.01 0.01 0.01
0.01 0.01 0.00 0.00 0.00 0.00 0.01 0.01 0.01 0.01 0.01 0.01 0.00 0.00 0.00 0.00 0.00 0.00 0.00 0.00 0.00 0.01 0.01 0.01 0.00 0.00 0.00 0.00 0.00 0.01 0.00 0.00 0.00 0.01 0.01 0.01 0.01 0.01 0.00 0.00 0.00 0.01 0.00 0.00
0.01 0.01 0.01 0.00 0.00 0.01 0.01 0.02 0.01 0.01 0.01 0.01 0.00 0.01 0.00 0.00 0.00 0.00 0.00 0.00 0.00 0.01 0.00 0.00 0.00 0.00 0.00 0.00 0.00 0.00 0.01 0.00 0.00 0.01 0.01 0.01 0.01 0.01 0.00 0.00 0.00 0.00 0.00 0.00
0.01 0.01 0.00 0.00 0.01 0.01 0.01 0.01 0.01 0.01 0.01 0.00 0.01 0.01 0.00 0.00 0.00 0.00 0.00 0.00 0.00 0.00 0.00 0.00 0.00 0.00 0.00 0.00 0.00 0.01 0.01 0.01 0.01 0.01 0.01 0.01 0.01 0.01 0.00 0.00 0.00 0.00 0.00 0.00
0.01 0.00 0.00 0.00 0.00 0.00 0.01 0.01 0.01 0.01 0.01 0.01 0.01 0.01 0.01 0.00 0.00 0.00 0.00 0.00 0.00 0.00 0.00 0.00 0.00 0.00 0.00 0.00 0.00 0.01 0.01 0.01 0.01 0.01 0.01 0.01 0.01 0.01 0.01 0.01 0.01 0.01 0.01 0.01
0.02 0.01 0.00 0.00 0.00 0.00 0.00 0.01 0.01 0.01 0.01 0.01 0.00 0.00 0.01 0.00 0.00 0.00 0.00 0.00 0.00 0.00 0.01 0.01 0.01 0.01 0.01 0.01 0.01 0.01 0.01 0.01 0.01 0.01 0.01 0.02 0.02 0.02 0.03 0.02 0.02 0.02 0.02 0.01
0.02 0.01 0.00 0.00 0.00 0.01 0.01 0.01 0.01 0.01 0.01 0.01 0.01 0.00 0.00 0.00 0.00 0.00 0.01 0.01 0.00 0.00 0.01 0.02 0.02 0.02 0.01 0.01 0.01 0.01 0.01 0.02 0.02 0.01 0.01 0.01 0.01 0.01 0.03 0.03 0.02 0.02 0.02 0.02
0.01 0.01 0.00 0.00 0.00 0.00 0.01 0.01 0.01 0.01 0.01 0.00 0.01 0.01 0.00 0.00 0.00 0.00 0.00 0.00 0.01 0.01 0.01 0.02 0.02 0.02 0.01 0.01 0.01 0.01 0.01 0.02 0.02 0.02 0.02 0.02 0.02 0.01 0.02 0.02 0.02 0.02 0.02 0.03
0.01 0.01 0.01 0.00 0.01 0.01 0.01 0.01 0.02 0.01 0.01 0.01 0.01 0.01 0.00 0.00 0.00 0.00 0.00 0.00 0.00 0.01 0.01 0.01 0.02 0.02 0.02 0.02 0.01 0.01 0.01 0.02 0.02 0.03 0.04 0.03 0.02 0.01 0.01 0.01 0.01 0.02 0.02 0.03
0.01 0.00 0.01 0.01 0.01 0.01 0.01 0.01 0.01 0.02 0.02 0.01 0.01 0.00 0.00 0.00 0.00 0.00 0.00 0.00 0.00 0.00 0.00 0.01 0.02 0.02 0.02 0.02 0.03 0.02 0.02 0.02 0.02 0.03 0.03 0.03 0.03 0.01 0.01 0.01 0.01 0.00 0.00 0.01
0.01 0.00 0.00 0.00 0.01 0.01 0.00 0.00 0.00 0.01 0.01 0.01 0.01 0.01 0.01 0.00 0.00 0.00 0.00 0.00 0.00 0.00 0.00 0.00 0.01 0.02 0.02 0.02 0.03 0.02 0.03 0.02 0.02 0.02 0.02 0.02 0.03 0.02 0.01 0.01 0.01 0.00 0.00 0.00
0.01 0.00 0.00 0.00 0.00 0.00 0.00 0.00 0.00 0.00 0.00 0.01 0.02 0.01 0.01 0.00 0.00 0.00 0.00 0.00 0.00 0.00 0.00 0.00 0.01 0.01 0.01 0.01 0.01 0.01 0.02 0.02 0.03 0.02 0.02 0.03 0.03 0.03 0.02 0.01 0.01 0.00 0.00 0.01
0.00 0.00 0.00 0.00 0.00 0.00 0.01 0.01 0.00 0.00 0.00 0.01 0.02 0.01 0.00 0.00 0.00 0.00 0.00 0.00 0.00 0.00 0.00 0.00 0.01 0.00 0.00 0.01 0.01 0.01 0.01 0.02 0.02 0.01 0.01 0.03 0.04 0.04 0.03 0.02 0.01 0.01 0.00 0.00
0.00 0.00 0.00 0.00 0.00 0.01 0.01 0.01 0.01 0.00 0.01 0.01 0.01 0.01 0.01 0.00 0.01 0.01 0.01 0.00 0.00 0.00 0.00 0.00 0.01 0.01 0.00 0.00 0.00 0.01 0.01 0.01 0.01 0.01 0.01 0.02 0.03 0.04 0.03 0.02 0.02 0.02 0.01 0.00
0.00 0.00 0.01 0.01 0.01 0.01 0.02 0.01 0.01 0.01 0.01 0.01 0.01 0.01 0.01 0.01 0.01 0.01 0.01 0.01 0.01 0.00 0.00 0.00 0.00 0.00 0.00 0.00 0.00 0.00 0.00 0.01 0.01 0.01 0.01 0.01 0.02 0.02 0.02 0.02 0.02 0.02 0.02 0.02
0.00 0.00 0.01 0.01 0.01 0.01 0.01 0.01 0.01 0.01 0.01 0.01 0.01 0.01 0.00 0.01 0.02 0.02 0.01 0.01 0.01 0.00 0.00 0.00 0.01 0.00 0.00 0.00 0.00 0.00 0.00 0.00 0.00 0.01 0.01 0.01 0.01 0.01 0.02 0.02 0.02 0.02 0.02 0.02
0.00 0.00 0.00 0.01 0.01 0.01 0.01 0.00 0.01 0.02 0.02 0.01 0.01 0.01 0.01 0.00 0.01 0.01 0.01 0.00 0.00 0.00 0.00 0.00 0.01 0.00 0.00 0.00 0.00 0.00 0.01 0.01 0.01 0.01 0.01 0.02 0.02 0.02 0.02 0.02 0.02 0.02 0.02 0.02
0.01 0.01 0.01 0.01 0.01 0.01 0.01 0.01 0.02 0.02 0.01 0.00 0.00 0.00 0.01 0.01 0.00 0.00 0.01 0.01 0.00 0.00 0.00 0.00 0.01 0.00 0.00 0.00 0.00 0.00 0.01 0.01 0.01 0.01 0.01 0.01 0.01 0.01 0.01 0.01 0.01 0.01 0.02 0.02
0.01 0.01 0.02 0.01 0.01 0.01 0.00 0.01 0.01 0.01 0.01 0.01 0.01 0.00 0.00 0.00 0.00 0.00 0.00 0.00 0.00 0.00 0.00 0.00 0.00 0.00 0.00 0.00 0.00 0.01 0.01 0.02 0.01 0.01 0.00 0.00 0.00 0.01 0.01 0.01 0.01 0.02 0.01 0.01
0.00 0.01 0.01 0.01 0.00 0.00 0.00 0.00 0.00 0.00 0.01 0.01 0.00 0.00 0.00 0.00 0.00 0.00 0.00 0.00 0.00 0.01 0.01 0.00 0.00 0.00 0.00 0.00 0.01 0.01 0.01 0.01 0.01 0.01 0.00 0.00 0.00 0.00 0.00 0.01 0.01 0.02 0.02 0.01
0.01 0.01 0.01 0.01 0.00 0.01 0.01 0.01 0.00 0.00 0.00 0.00 0.00 0.00 0.01 0.01 0.00 0.00 0.00 0.00 0.01 0.01 0.01 0.01 0.01 0.01 0.02 0.02 0.02 0.02 0.01 0.01 0.00 0.00 0.01 0.01 0.01 0.00 0.00 0.00 0.01 0.01 0.02 0.03
0.01 0.01 0.01 0.01 0.01 0.02 0.02 0.01 0.01 0.00 0.00 0.00 0.01 0.01 0.00 0.01 0.01 0.01 0.00 0.00 0.00 0.01 0.01 0.02 0.03 0.02 0.02 0.01 0.01 0.01 0.00 0.00 0.00 0.00 0.01 0.01 0.01 0.01 0.01 0.01 0.01 0.01 0.01 0.02
MSLP
1013.50 1014.16 1014.82 1015.45 1016.03 1016.53 1016.95 1017.26 1017.46 1017.55 1017.52 1017.38 1017.16 1016.86 1016.53 1016.20 1015.92 1015.71 1015.61 1015.62 1015.76 1016.01 1016.35 1016.74 1017.17 1017.60 1018.01 1018.39 1018.73 1019.03 1019.30 1019.54 1019.76 1019.98 1020.18 1020.38 1020.56 1020.72 1020.85 1020.95 1021.01 1021.04 1021.03 1020.98
1014.14 1014.72 1015.25 1015.73 1016.16 1016.52 1016.83 1017.06 1017.21 1017.26 1017.21 1017.05 1016.78 1016.42 1016.00 1015.58 1015.20 1014.91 1014.76 1014.75 1014.90 1015.20 1015.60 1016.07 1016.57 1017.06 1017.50 1017.90 1018.24 1018.54 1018.82 1019.08 1019.34 1019.61 1019.87 1020.13 1020.37 1020.59 1020.75 1020.88 1020.96 1021.01 1021.03 1021.02
1014.60 1015.10 1015.53 1015.88 1016.18 1016.43 1016.64 1016.80 1016.91 1016.94 1016.86 1016.67 1016.35 1015.93 1015.43 1014.92 1014.45 1014.09 1013.88 1013.85 1014.01 1014.34 1014.79 1015.32 1015.87 1016.39 1016.86 1017.27 1017.61 1017.92 1018.21 1018.50 1018.80 1019.13 1019.46 1019.78 1020.08 1020.34 1020.54 1020.69 1020.78 1020.84 1020.88 1020.91
1014.87 1015.30 1015.64 1015.90 1016.10 1016.28 1016.43 1016.56 1016.65 1016.66 1016.57 1016.35 1015.98 1015.50 1014.92 1014.31 1013.76 1013.32 1013.05 1012.99 1013.14 1013.48 1013.95 1014.51 1015.08 1015.62 1016.09 1016.50 1016.85 1017.16 1017.47 1017.80 1018.15 1018.54 1018.94 1019.33 1019.68 1019.98 1020.21 1020.38 1020.48 1020.55 1020.61 1020.68
1014.92 1015.31 1015.59 1015.80 1015.96 1016.11 1016.25 1016.38 1016.47 1016.49 1016.40 1016.15 1015.75 1015.19 1014.54 1013.84 1013.19 1012.67 1012.34 1012.23 1012.34 1012.66 1013.13 1013.68 1014.24 1014.77 1015.24 1015.64 1015.99 1016.31 1016.63 1016.99 1017.40 1017.84 1018.31 1018.76 1019.17 1019.52 1019.78 1019.97 1020.10 1020.19 1020.27 1020.37
1014.77 1015.12 1015.38 1015.58 1015.75 1015.92 1016.10 1016.27 1016.40 1016.45 1016.36 1016.10 1015.66 1015.05 1014.32 1013.54 1012.80 1012.19 1011.78 1011.61 1011.67 1011.94 1012.37 1012.88 1013.42 1013.92 1014.36 1014.74 1015.08 1015.40 1015.74 1016.13 1016.57 1017.07 1017.59 1018.10 1018.57 1018.97 1019.27 1019.50 1019.66 1019.79 1019.91 1020.04
1014.42 1014.75 1015.02 1015.25 1015.48 1015.71 1015.96 1016.21 1016.40 1016.49 1016.42 1016.16 1015.69 1015.03 1014.23 1013.38 1012.56 1011.87 1011.38 1011.14 1011.13 1011.34 1011.72 1012.18 1012.67 1013.12 1013.53 1013.87 1014.19 1014.50 1014.84 1015.24 1015.72 1016.25 1016.82 1017.38 1017.90 1018.35 1018.71 1018.99 1019.21 1019.38 1019.55 1019.72
1013.92 1014.25 1014.54 1014.83 1015.13 1015.46 1015.80 1016.13 1016.40 1016.54 1016.50 1016.24 1015.75 1015.05 1014.20 1013.29 1012.41 1011.66 1011.11 1010.80 1010.73 1010.88 1011.19 1011.59 1012.02 1012.43 1012.79 1013.10 1013.38 1013.68 1014.01 1014.42 1014.90 1015.45 1016.04 1016.64 1017.21 1017.71 1018.14 1018.48 1018.77 1019.01 1019.23 1019.46
1013.32 1013.65 1013.98 1014.33 1014.72 1015.14 1015.58 1015.99 1016.32 1016.51 1016.49 1016.23 1015.73 1015.01 1014.13 1013.19 1012.28 1011.49 1010.90 1010.55 1010.43 1010.53 1010.79 1011.14 1011.51 1011.87 1012.19 1012.47 1012.73 1013.00 1013.32 1013.71 1014.19 1014.73 1015.34 1015.95 1016.55 1017.10 1017.59 1018.01 1018.37 1018.69 1018.98 1019.26
1012.68 1013.01 1013.38 1013.79 1014.25 1014.75 1015.26 1015.74 1016.11 1016.32 1016.30 1016.05 1015.53 1014.81 1013.93 1012.98 1012.07 1011.28 1010.69 1010.32 1010.19 1010.26 1010.48 1010.79 1011.13 1011.45 1011.74 1012.00 1012.24 1012.49 1012.79 1013.17 1013.63 1014.16 1014.76 1015.38 1015.99 1016.58 1017.12 1017.61 1018.04 1018.43 1018.79 1019.12
1012.08 1012.42 1012.81 1013.26 1013.77 1014.31 1014.86 1015.35 1015.72 1015.91 1015.89 1015.61 1015.09 1014.37 1013.51 1012.59 1011.72 1010.97 1010.41 1010.06 1009.94 1010.00 1010.21 1010.51 1010.83 1011.15 1011.43 1011.68 1011.92 1012.17 1012.46 1012.83 1013.27 1013.78 1014.36 1014.97 1015.59 1016.19 1016.76 1017.30 1017.79 1018.25 1018.66 1019.03
1011.56 1011.91 1012.32 1012.79 1013.31 1013.85 1014.38 1014.84 1015.17 1015.31 1015.24 1014.93 1014.40 1013.69 1012.87 1012.01 1011.21 1010.53 1010.03 1009.74 1009.65 1009.73 1009.95 1010.25 1010.58 1010.90 1011.19 1011.47 1011.72 1012.00 1012.31 1012.67 1013.11 1013.61 1014.16 1014.75 1015.36 1015.96 1016.54 1017.10 1017.63 1018.12 1018.57 1018.96
1011.18 1011.53 1011.95 1012.41 1012.91 1013.41 1013.87 1014.25 1014.49 1014.54 1014.40 1014.05 1013.50 1012.82 1012.05 1011.27 1010.56 1009.98 1009.57 1009.35 1009.31 1009.43 1009.67 1009.98 1010.33 1010.67 1011.00 1011.31 1011.61 1011.93 1012.28 1012.67 1013.12 1013.62 1014.16 1014.73 1015.31 1015.89 1016.46 1017.02 1017.55 1018.05 1018.50 1018.90
1010.92 1011.29 1011.70 1012.14 1012.58 1013.00 1013.36 1013.61 1013.72 1013.67 1013.43 1013.02 1012.47 1011.81 1011.11 1010.43 1009.83 1009.36 1009.05 1008.91 1008.94 1009.10 1009.36 1009.69 1010.06 1010.43 1010.80 1011.16 1011.53 1011.92 1012.33 1012.78 1013.26 1013.78 1014.32 1014.87 1015.42 1015.97 1016.51 1017.03 1017.54 1018.01 1018.45 1018.83
1010.75 1011.14 1011.54 1011.93 1012.30 1012.61 1012.84 1012.94 1012.91 1012.73 1012.40 1011.93 1011.37 1010.75 1010.13 1009.56 1009.08 1008.73 1008.53 1008.48 1008.56 1008.76 1009.04 1009.39 1009.77 1010.17 1010.58 1011.01 1011.46 1011.92 1012.42 1012.94 1013.48 1014.03 1014.59 1015.13 1015.66 1016.17 1016.66 1017.13 1017.58 1018.01 1018.40 1018.74
1010.62 1011.01 1011.39 1011.73 1012.00 1012.19 1012.27 1012.23 1012.05 1011.74 1011.32 1010.82 1010.26 1009.70 1009.17 1008.72 1008.37 1008.15 1008.05 1008.08 1008.23 1008.46 1008.76 1009.11 1009.50 1009.92 1010.37 1010.86 1011.38 1011.93 1012.52 1013.12 1013.74 1014.34 1014.92 1015.47 1015.98 1016.45 1016.88 1017.29 1017.67 1018.03 1018.36 1018.65
1010.45 1010.83 1011.17 1011.44 1011.61 1011.68 1011.62 1011.43 1011.12 1010.71 1010.22 1009.70 1009.17 1008.68 1008.26 1007.94 1007.73 1007.63 1007.65 1007.77 1007.97 1008.23 1008.54 1008.90 1009.29 1009.73 1010.21 1010.74 1011.32 1011.95 1012.62 1013.31 1014.00 1014.65 1015.27 1015.83 1016.33 1016.76 1017.14 1017.48 1017.80 1018.08 1018.35 1018.58
1010.16 1010.50 1010.78 1010.97 1011.05 1011.00 1010.81 1010.51 1010.09 1009.61 1009.09 1008.57 1008.09 1007.69 1007.40 1007.22 1007.15 1007.20 1007.34 1007.55 1007.81 1008.11 1008.44 1008.80 1009.19 1009.64 1010.13 1010.70 1011.33 1012.02 1012.75 1013.50 1014.25 1014.95 1015.60 1016.17 1016.66 1017.07 1017.41 1017.70 1017.95 1018.17 1018.37 1018.56
1009.71 1009.99 1010.19 1010.29 1010.26 1010.10 1009.82 1009.43 1008.95 1008.43 1007.90 1007.42 1007.02 1006.73 1006.57 1006.54 1006.63 1006.82 1007.08 1007.40 1007.74 1008.09 1008.46 1008.83 1009.23 1009.68 1010.19 1010.77 1011.43 1012.15 1012.92 1013.71 1014.49 1015.23 1015.90 1016.47 1016.96 1017.35 1017.66 1017.91 1018.11 1018.29 1018.45 1018.59
1009.11 1009.29 1009.38 1009.38 1009.26 1009.01 1008.65 1008.20 1007.69 1007.17 1006.67 1006.25 1005.94 1005.77 1005.75 1005.87 1006.11 1006.44 1006.85 1007.28 1007.71 1008.14 1008.56 1008.98 1009.41 1009.87 1010.39 1010.98 1011.64 1012.37 1013.15 1013.95 1014.74 1015.48 1016.15 1016.73 1017.21 1017.59 1017.89 1018.12 1018.29 1018.44 1018.57 1018.68
1008.38 1008.43 1008.42 1008.31 1008.10 1007.78 1007.37 1006.89 1006.38 1005.88 1005.43 1005.09 1004.88 1004.82 1004.92 1005.18 1005.57 1006.05 1006.58 1007.14 1007.69 1008.21 1008.71 1009.19 1009.67 1010.17 1010.70 1011.30 1011.96 1012.68 1013.44 1014.22 1014.99 1015.71 1016.37 1016.93 1017.41 1017.78 1018.08 1018.30 1018.48 1018.62 1018.73 1018.83
1007.59 1007.51 1007.37 1007.16 1006.87 1006.50 1006.07 1005.59 1005.10 1004.63 1004.25 1003.98 1003.85 1003.89 1004.11 1004.48 1004.99 1005.59 1006.25 1006.93 1007.60 1008.24 1008.84 1009.41 1009.96 1010.51 1011.08 1011.69 1012.34 1013.04 1013.77 1014.51 1015.24 1015.92 1016.55 1017.10 1017.56 1017.94 1018.23 1018.47 1018.65 1018.80 1018.92 1019.02
1006.80 1006.58 1006.33 1006.04 1005.69 1005.29 1004.85 1004.39 1003.93 1003.52 1003.19 1002.98 1002.93 1003.04 1003.33 1003.78 1004.38 1005.08 1005.84 1006.63 1007.42 1008.17 1008.89 1009.56 1010.20 1010.82 1011.44 1012.07 1012.72 1013.40 1014.10 1014.79 1015.47 1016.11 1016.70 1017.23 1017.68 1018.06 1018.36 1018.62 1018.82 1018.98 1019.12 1019.22
1006.06 1005.72 1005.39 1005.03 1004.65 1004.25 1003.82 1003.39 1002.97 1002.61 1002.33 1002.16 1002.15 1002.30 1002.63 1003.12 1003.76 1004.52 1005.35 1006.23 1007.11 1007.97 1008.80 1009.58 1010.32 1011.02 1011.71 1012.38 1013.05 1013.72 1014.38 1015.04 1015.68 1016.28 1016.83 1017.33 1017.78 1018.16 1018.48 1018.75 1018.97 1019.16 1019.30 1019.41
1005.38 1004.97 1004.58 1004.19 1003.81 1003.42 1003.02 1002.63 1002.26 1001.94 1001.69 1001.56 1001.56 1001.71 1002.04 1002.53 1003.18 1003.95 1004.82 1005.74 1006.69 1007.64 1008.56 1009.45 1010.29 1011.08 1011.83 1012.56 1013.26 1013.93 1014.59 1015.23 1015.83 1016.41 1016.94 1017.43 1017.86 1018.25 1018.58 1018.87 1019.11 1019.31 1019.46 1019.57
1004.77 1004.33 1003.92 1003.54 1003.17 1002.81 1002.45 1002.11 1001.78 1001.50 1001.28 1001.15 1001.15 1001.29 1001.58 1002.05 1002.66 1003.42 1004.28 1005.22 1006.21 1007.21 1008.21 1009.17 1010.09 1010.97 1011.80 1012.58 1013.32 1014.03 1014.70 1015.34 1015.94 1016.50 1017.03 1017.51 1017.95 1018.35 1018.69 1018.99 1019.24 1019.44 1019.59 1019.69
Thickness
5733 5728 5722 5724 5728 5727 5724 5720 5719 5723 5730 5725 5723 5724 5729 5733 5731 5730 5730 5731 5731 5730 5731 5729 5727 5725 5723 5721 5719 5717 5714 5712 5710 5708 5705 5703 5701 5700 5699 5697 5696 5694 5693 5693
5722 5718 5724 5726 5724 5721 5719 5715 5716 5720 5725 5722 5720 5721 5728 5729 5727 5727 5727 5728 5727 5727 5726 5724 5723 5722 5721 5719 5717 5716 5713 5711 5708 5705 5704 5702 5700 5698 5697 5694 5693 5692 5691 5689
5714 5718 5721 5718 5714 5712 5713 5713 5714 5713 5717 5721 5716 5716 5721 5724 5725 5724 5724 5725 5726 5724 5723 5722 5721 5720 5718 5717 5716 5713 5711 5709 5706 5703 5701 5699 5697 5695 5693 5691 5690 5689 5687 5686
5713 5716 5714 5712 5710 5711 5707 5715 5713 5710 5708 5709 5711 5705 5718 5721 5718 5718 5720 5721 5721 5721 5720 5719 5717 5716 5715 5714 5714 5712 5710 5708 5704 5701 5698 5696 5694 5692 5691 5690 5688 5686 5684 5683
5707 5710 5708 5705 5708 5710 5709 5712 5710 5708 5706 5704 5708 5703 5715 5718 5713 5715 5718 5719 5718 5717 5717 5715 5714 5713 5713 5712 5710 5709 5707 5704 5702 5699 5696 5694 5692 5691 5690 5688 5686 5684 5682 5680
5706 5710 5709 5708 5709 5709 5707 5706 5704 5704 5702 5692 5703 5700 5705 5714 5713 5714 5715 5715 5714 5713 5712 5711 5711 5709 5708 5708 5706 5705 5703 5701 5699 5696 5694 5692 5690 5688 5686 5683 5682 5681 5679 5677
5695 5700 5704 5707 5701 5702 5702 5696 5686 5684 5685 5691 5701 5696 5702 5712 5713 5712 5712 5712 5711 5710 5708 5707 5705 5703 5703 5702 5702 5701 5699 5697 5696 5694 5692 5690 5688 5686 5684 5681 5679 5677 5676 5674
5684 5686 5695 5699 5698 5695 5697 5695 5683 5676 5681 5690 5692 5692 5703 5708 5709 5709 5710 5710 5707 5706 5704 5702 5701 5699 5698 5698 5697 5697 5696 5694 5692 5690 5689 5688 5686 5683 5681 5679 5677 5675 5673 5671
5682 5682 5692 5694 5697 5697 5690 5690 5694 5687 5684 5680 5690 5694 5700 5703 5702 5702 5703 5703 5703 5702 5700 5698 5696 5695 5694 5693 5693 5692 5692 5690 5688 5687 5685 5683 5682 5679 5677 5675 5674 5671 5669 5667
5683 5675 5683 5686 5689 5688 5691 5689 5683 5678 5670 5671 5681 5686 5691 5693 5695 5697 5697 5698 5699 5698 5696 5694 5692 5690 5689 5689 5689 5689 5688 5687 5684 5683 5681 5678 5677 5675 5672 5671 5669 5667 5665 5663
5677 5672 5673 5678 5678 5678 5679 5678 5679 5678 5677 5670 5669 5683 5698 5695 5695 5693 5694 5695 5695 5693 5691 5689 5687 5686 5685 5684 5684 5683 5682 5680 5679 5677 5676 5673 5671 5669 5667 5665 5664 5662 5660 5657
5671 5670 5668 5673 5679 5679 5678 5677 5674 5666 5668 5670 5669 5679 5697 5694 5693 5691 5690 5690 5690 5689 5687 5685 5683 5681 5680 5679 5678 5677 5676 5674 5672 5671 5669 5668 5666 5664 5662 5661 5659 5657 5655 5653
5663 5661 5657 5660 5663 5667 5668 5669 5669 5668 5666 5665 5662 5673 5689 5689 5687 5686 5685 5685 5684 5683 5682 5680 5677 5676 5674 5673 5673 5671 5670 5668 5666 5664 5663 5662 5661 5659 5657 5655 5653 5651 5650 5648
5660 5659 5658 5655 5662 5664 5661 5660 5662 5660 5658 5661 5667 5673 5680 5680 5679 5680 5679 5679 5679 5678 5676 5675 5672 5671 5670 5668 5667 5666 5664 5662 5660 5657 5656 5656 5655 5653 5651 5650 5647 5645 5644 5642
5655 5654 5657 5660 5661 5659 5658 5657 5657 5657 5661 5659 5667 5668 5674 5676 5674 5675 5674 5673 5672 5671 5670 5669 5667 5666 5665 5663 5662 5660 5658 5656 5654 5652 5650 5649 5648 5647 5645 5643 5640 5638 5636 5635
5650 5648 5650 5650 5653 5653 5652 5656 5656 5655 5658 5659 5661 5664 5674 5674 5673 5670 5669 5667 5665 5665 5665 5664 5664 5662 5660 5659 5657 5655 5653 5650 5648 5645 5643 5642 5640 5639 5637 5635 5634 5631 5629 5628
5643 5643 5641 5645 5647 5646 5647 5655 5653 5654 5658 5657 5655 5662 5667 5665 5664 5664 5664 5662 5661 5661 5660 5660 5659 5658 5656 5654 5652 5649 5647 5644 5642 5639 5636 5634 5633 5631 5630 5628 5626 5624 5623 5621
5638 5638 5637 5638 5637 5631 5653 5659 5656 5653 5655 5657 5658 5661 5661 5661 5661 5662 5661 5658 5657 5656 5655 5655 5654 5652 5650 5648 5645 5642 5640 5638 5635 5633 5630 5627 5625 5624 5622 5621 5618 5617 5617 5615
5635 5633 5630 5629 5629 5638 5647 5648 5647 5644 5648 5655 5653 5654 5655 5655 5654 5656 5656 5654 5652 5652 5651 5650 5648 5645 5643 5640 5638 5635 5633 5631 5628 5625 5623 5621 5619 5617 5615 5613 5611 5610 5608 5607
5626 5628 5626 5621 5618 5623 5639 5644 5645 5641 5639 5652 5650 5648 5647 5644 5643 5649 5651 5648 5646 5645 5643 5642 5639 5637 5634 5632 5630 5628 5626 5624 5621 5618 5616 5614 5612 5610 5607 5605 5603 5602 5600 5599
5616 5617 5617 5617 5616 5628 5638 5637 5635 5625 5635 5644 5643 5642 5640 5639 5642 5645 5644 5640 5639 5636 5634 5632 5630 5628 5626 5623 5621 5620 5618 5616 5613 5610 5607 5605 5604 5601 5599 5597 5594 5593 5592 5590
5615 5612 5612 5612 5610 5618 5630 5628 5626 5632 5639 5637 5636 5636 5635 5635 5635 5635 5634 5632 5630 5628 5626 5624 5621 5619 5616 5614 5613 5612 5609 5607 5603 5601 5599 5597 5595 5592 5590 5588 5586 5585 5583 5581
5611 5614 5615 5614 5617 5626 5625 5626 5629 5630 5630 5630 5629 5629 5627 5626 5626 5625 5624 5623 5622 5620 5618 5616 5613 5611 5608 5606 5605 5603 5601 5597 5595 5593 5591 5589 5587 5585 5582 5581 5579 5577 5575 5573
5608 5607 5607 5609 5616 5618 5619 5621 5622 5623 5623 5624 5623 5622 5621 5620 5619 5617 5616 5614 5613 5612 5610 5608 5605 5603 5600 5598 5596 5595 5592 5589 5587 5585 5584 5582 5580 5578 5576 5573 5571 5569 5567 5565
5599 5598 5599 5603 5610 5610 5612 5612 5614 5615 5616 5616 5616 5616 5615 5614 5613 5612 5610 5608 5607 5605 5603 5601 5598 5596 5593 5591 5588 5586 5583 5581 5580 5578 5576 5574 5572 5570 5568 5565 5562 5560 5559 5557
5593 5591 5591 5596 5602 5601 5606 5608 5608 5608 5608 5609 5609 5608 5608 5607 5606 5605 5603 5602 5600 5598 5596 5594 5591 5589 5586 5584 5581 5578 5575 5573 5572 5571 5568 5566 5563 5561 5560 5558 5555 5550 5548 5545